Home > Weather > Brentwood > Past weeks

Flag for United Kingdom Past Weather in Brentwood, England, United Kingdom — Yesterday and Last 2 Weeks

Now
61 °F

Cool.


Feels Like: 61 °F
Forecast: 51 / 76 °F
Wind: 5 mph from Southwest

Location: Gravesend-Broadness

Current Time: Aug 29, 2016 at 1:33:25 AM

Latest Report: Aug 29, 2016 at 12:00 AM


Visibility: N/A

Pressure: 30.01 "Hg

Humidity: 94%

Dew Point: 59 °F

Location of BrentwoodLocation

Past Weather in Brentwood — Graph

°F

Brentwood Temperature Yesterday

Maximum temperature yesterday: 74 °F (at 1:00 PM)
Minimum temperature yesterday: 60 °F (at 11:00 PM)
Average temperature yesterday: 67 °F

High & Low Weather Summary for the Past Weeks

 TemperatureHumidityPressure
High93 °F (Aug 24, 5:00 PM)99% (Aug 15, 7:00 AM)30.30 "Hg (Aug 15, 7:00 AM)
Low47 °F (Aug 15, 6:00 AM)32% (Aug 26, 7:00 PM)29.68 "Hg (Aug 19, 7:00 PM)
Average67 °F74%30.01 "Hg
* Reported Aug 13 11:00 PM — Aug 28 11:00 PM, Brentwood, Weather by CustomWeather, © 2016

Note: Actual official high and low records may vary slightly from our data, if they occured in-between our weather recording intervals... More about our weather records

Advertising

Brentwood Weather History for the Previous 24 Hours

Scroll right to see more
 ConditionsComfort  
Time TempWeatherWind HumidityBarometerVisibility
11:00 PM
Sun, Aug 28
60 °FCool.6 mph94%29.99 "HgN/A
10:00 PM63 °FMild.5 mph90%29.98 "HgN/A
9:00 PM63 °FMild.7 mph86%29.97 "HgN/A
8:00 PM65 °FMild.9 mph81%29.96 "HgN/A
7:00 PM67 °FMild.13 mph77%29.94 "HgN/A
6:00 PM69 °FMild.12 mph70%29.94 "HgN/A
5:00 PM70 °FMild.15 mph68%29.93 "HgN/A
4:00 PM72 °FMild.13 mph64%29.92 "HgN/A
3:00 PM73 °FMild.16 mph59%29.92 "HgN/A
2:00 PM72 °FMild.16 mph63%29.91 "HgN/A
1:00 PM74 °FMild.16 mph61%29.90 "HgN/A
12:00 PM72 °FMild.14 mph66%29.90 "HgN/A
11:00 AM70 °FMild.14 mph69%29.90 "HgN/A
10:00 AM68 °FMild.12 mph73%29.90 "HgN/A
9:00 AM66 °FMild.10 mph75%29.88 "HgN/A
8:00 AM64 °FMild.8 mph84%29.88 "HgN/A
7:00 AM63 °FMild.12 mph86%29.88 "HgN/A
6:00 AM63 °FMild.9 mph83%29.86 "HgN/A
5:00 AM64 °FMild.8 mph89%29.86 "HgN/A
4:00 AM66 °FMild.7 mph85%29.85 "HgN/A
3:00 AM67 °FMild.1 mph86%29.85 "HgN/A
2:00 AM67 °FMild.2 mph89%29.87 "HgN/A
1:00 AM65 °FMild.7 mph96%29.87 "HgN/A
Weather by CustomWeather, © 2016

See weather overviewHow to use our weather pages